Location: Boiro
(42.6475°N, 8.8834°W)
Time: 23:08:41
(UTC+01:00)

A-11 Canister half - Pass Details

Date: 03 December 2021
Orbit: 1516 x 1684 km, 47.2° (Epoch: 18 January)

Event Time Altitude Azimuth Distance (km) Brightness Sun altitude
Rises 12:42:35 0° 285° (WNW) 4,855 11.4 24.4°
Reaches altitude 10° 12:45:42 10° 288° (WNW) 3,887 10.9 24.5°
Maximum altitude 12:55:45 74° 14° (NNE) 1,728 9.5 24.8°
Drops below altitude 10° 13:05:57 10° 99° (E) 3,946 11.4 25.0°
Sets 13:09:08 0° 102° (ESE) 4,930 11.9 25.1°
